TimeCET,TemperatureF,Dew PointF,Humidity,Sea Level PressureIn,VisibilityMPH,Wind Direction,Wind SpeedMPH,Gust SpeedMPH,PrecipitationIn,Events,Conditions,WindDirDegrees,DateUTC
12:00 AM,24.8,19.4,80,30.04,6.2,West,8.1,-,N/A,Snow,Light Snow,270,2013-01-12 23:00:00
1:00 AM,26.6,19.4,74,30.04,6.2,West,10.4,-,N/A,Snow,Light Snow,270,2013-01-13 00:00:00
2:00 AM,24.8,19.4,80,30.04,6.2,West,9.2,-,N/A,Snow,Light Snow,270,2013-01-13 01:00:00
3:00 AM,24.8,21.2,86,30.04,6.2,West,8.1,-,N/A,Snow,Light Snow,270,2013-01-13 02:00:00
4:00 AM,24.8,21.2,86,30.04,-9999.0,West,5.8,-,N/A,,Clear,280,2013-01-13 03:00:00
5:00 AM,24.8,21.2,86,30.01,6.2,WNW,4.6,-,N/A,Snow,Light Snow,290,2013-01-13 04:00:00
6:00 AM,24.8,21.2,86,30.04,6.2,WNW,3.5,-,N/A,Snow,Light Snow,300,2013-01-13 05:00:00
7:00 AM,24.8,21.2,86,30.04,6.2,Variable,2.3,-,N/A,Snow,Light Snow,0,2013-01-13 06:00:00
8:03 AM,24.8,17.6,74,30.06,6.2,NNE,5.8,-,N/A,,Overcast,30,2013-01-13 07:03:00
9:00 AM,23.0,17.6,80,30.06,6.2,NNE,3.5,-,N/A,,Mostly Cloudy,30,2013-01-13 08:00:00
10:00 AM,23.0,15.8,74,30.06,6.2,Variable,2.3,-,N/A,,Mostly Cloudy,0,2013-01-13 09:00:00
11:00 AM,24.8,17.6,74,30.06,6.2,ENE,3.5,-,N/A,Snow,Light Snow,60,2013-01-13 10:00:00
12:00 PM,24.8,19.4,80,30.06,6.2,Variable,1.2,-,N/A,Snow,Light Snow,0,2013-01-13 11:00:00
1:00 PM,26.6,19.4,74,30.04,6.2,Variable,2.3,-,N/A,,Mostly Cloudy,0,2013-01-13 12:00:00
2:00 PM,26.6,19.4,74,30.04,6.2,Variable,2.3,-,N/A,,Mostly Cloudy,0,2013-01-13 13:00:00
3:00 PM,26.6,19.4,74,30.06,6.2,East,4.6,-,N/A,,Overcast,90,2013-01-13 14:00:00
4:00 PM,26.6,19.4,74,30.06,6.2,East,5.8,-,N/A,,Overcast,80,2013-01-13 15:00:00
5:00 PM,26.6,19.4,74,30.06,6.2,East,5.8,-,N/A,,Overcast,90,2013-01-13 16:00:00
6:00 PM,26.6,17.6,69,30.06,6.2,East,11.5,-,N/A,,Overcast,100,2013-01-13 17:00:00
7:00 PM,26.6,17.6,69,30.06,6.2,East,8.1,-,N/A,,Overcast,90,2013-01-13 18:00:00
8:00 PM,26.6,19.4,74,30.06,6.2,ESE,8.1,-,N/A,,Overcast,110,2013-01-13 19:00:00
9:00 PM,26.6,19.4,74,30.06,6.2,East,10.4,-,N/A,,Overcast,100,2013-01-13 20:00:00
10:00 PM,24.8,19.4,80,30.06,6.2,East,9.2,-,N/A,,Overcast,90,2013-01-13 21:00:00
11:00 PM,24.8,19.4,80,30.06,6.2,East,8.1,-,N/A,,Overcast,90,2013-01-13 22:00:00